Location: An Tulaigh
(53.1928°N, 8.1647°W)
Time: 03:06:27
(UTC+00:00)

CZ-2C R/B - Pass Details

Date: 15 May 2026
Orbit: 332 x 344 km, 97.7° (Epoch: 8 June)

Event Time Altitude Azimuth Distance (km) Brightness Sun altitude
Exits shadow 21:52:15 17° 146° (SE) 933 3.3 -10.2°
Maximum altitude 21:54:05 54° 72° (ENE) 418 2.1 -10.4°
Drops below altitude 10° 21:56:44 10° 354° (N) 1,283 5.7 -10.6°
Sets 21:58:40 0° 349° (N) 2,128 7.1 -10.8°
